Location: Azul
(36.7830°S, 59.8500°W)
Time: 02:46:12
(UTC-03:00)

UWE-3 - Pass Details

Date: 01 November 2021
Orbit: 584 x 681 km, 97.7° (Epoch: 04 December)

Event Time Altitude Azimuth Distance (km) Brightness Sun altitude
Exits shadow 05:13:47 - 318° (NW) 2,154 ? -8.3°
Reaches altitude 10° 05:14:16 10° 313° (NW) 2,024 ? -8.2°
Maximum altitude 05:17:08 17° 272° (W) 1,644 ? -7.7°
Drops below altitude 10° 05:20:04 10° 232° (SW) 2,083 ? -7.1°
Sets 05:23:05 0° 211° (SSW) 3,024 ? -6.6°
